This demonstration page uses our WeatherBlox Daily Observations layout. Learn more.

Left ArrowRight Arrow

40.92945, -100.16068

Hourly Observations for May 22, 2015

Temp ( °F °C ) Dew Point ( °F °C ) Humidity (%) Winds ( mph kmh ) Pressure ( in mb ) Visibility ( mi km ) Precip ( " mm )
12:15 am 00:15 Clear 48 8.8 42 5.3 79 79 S 7 11 30.21 1023 10 16.0934 N/A
12:35 am 00:35 Clear 47 8.5 41 5.1 79 79 S 8 13 30.21 1023 10 16.0934 N/A
12:55 am 00:55 Clear 47 8.5 41 5.1 79 79 S 6 9 30.21 1023 10 16.0934 N/A
1:15 am 01:15 Clear 48 8.7 41 5.2 79 79 S 8 13 30.21 1023 10 16.0934 N/A
1:35 am 01:35 Clear 47 8.5 42 5.3 81 81 S 6 9 30.21 1023 10 16.0934 N/A
1:55 am 01:55 Clear 48 9 42 5.3 78 78 S 5 7 30.21 1023 10 16.0934 N/A
2:15 am 02:15 Clear 47 8.5 41 5.1 79 79 S 6 9 30.21 1023 10 16.0934 N/A
2:35 am 02:35 Clear 47 8.3 41 5 80 80 SSE 3 6 30.24 1024 10 16.0934 N/A
2:55 am 02:55 Clear 47 8.6 42 5.3 80 80 SSE 3 6 30.18 1022 10 16.0934 N/A
3:15 am 03:15 Clear 46 7.7 41 5 83 83 ESE 3 6 30.21 1023 10 16.0934 N/A
3:35 am 03:35 Clear 44 6.8 41 4.8 87 87 E 3 6 30.21 1023 10 16.0934 N/A
3:55 am 03:55 Clear 43 6.2 40 4.6 90 90 N N/A 30.21 1023 10 16.0934 N/A
4:15 am 04:15 Clear 44 6.5 41 5.1 91 91 E 3 6 30.21 1023 10 16.0934 N/A
4:35 am 04:35 Clear 43 6.3 41 5 91 91 ESE 3 6 30.21 1023 10 16.0934 N/A
4:55 am 04:55 Clear 43 6.3 41 4.8 90 90 ESE 5 7 30.21 1023 10 16.0934 N/A
5:15 am 05:15 Clear 44 6.5 41 5.2 92 92 ESE 6 9 30.21 1023 10 16.0934 N/A
5:35 am 05:35 Clear 45 7.2 42 5.5 89 89 ESE 5 7 30.21 1023 10 16.0934 N/A
5:55 am 05:55 Clear 45 7.1 42 5.6 90 90 ESE 5 7 30.21 1023 10 16.0934 N/A
6:15 am 06:15 Clear 45 7 42 5.6 91 91 E 5 7 30.21 1023 10 16.0934 N/A
6:35 am 06:35 Sunny 45 7 42 5.8 92 92 E 5 7 30.18 1022 10 16.0934 N/A
6:55 am 06:55 Sunny 45 7.2 43 6.1 93 93 ESE 3 6 30.21 1023 10 16.0934 N/A
7:15 am 07:15 Sunny 46 7.9 44 6.7 92 92 E 5 7 30.21 1023 10 16.0934 N/A
7:35 am 07:35 Sunny 47 8.4 45 7 91 91 ESE 5 7 30.21 1023 10 16.0934 N/A
7:55 am 07:55 Sunny 48 8.7 45 7.2 90 90 ESE 5 7 30.18 1022 10 16.0934 N/A
8:15 am 08:15 Sunny 49 9.3 46 7.5 89 89 SE 6 9 30.18 1022 10 16.0934 N/A
8:35 am 08:35 Sunny 50 9.8 46 8 89 89 SE 6 9 30.18 1022 10 16.0934 N/A
8:55 am 08:55 Mostly Cloudy 51 10.4 46 8 85 85 SSE 8 13 30.18 1022 10 16.0934 N/A
9:15 am 09:15 Cloudy 51 10.5 46 8 85 85 S 9 15 30.18 1022 10 16.0934 N/A
9:35 am 09:35 Cloudy with Drizzle 51 10.5 47 8.1 85 85 SSE 13 20 30.18 1022 10 16.0934 N/A
9:55 am 09:55 Cloudy with Light Rain 50 10.2 47 8.1 87 87 S 13 20 30.21 1023 10 16.0934 N/A
10:15 am 10:15 Cloudy with Rain 50 10 47 8.3 89 89 SSE 10 17 30.21 1023 5 8.0467 0.03 0.762
10:35 am 10:35 Cloudy with Rain 50 9.9 47 8.5 91 91 SSE 7 11 30.21 1023 5 8.0467 0.07 1.778
10:55 am 10:55 Cloudy with Rain 50 9.8 47 8.6 92 92 SSE 6 9 30.21 1023 5 8.0467 0.11 2.794
11:15 am 11:15 Cloudy with Light Rain 50 10 48 8.7 92 92 SSE 9 15 30.21 1023 7 11.26538 0.03 0.762
11:35 am 11:35 Cloudy with Rain 50 9.9 47 8.5 91 91 SSE 9 15 30.21 1023 7 11.26538 0.05 1.27
11:55 am 11:55 Cloudy with Rain 49 9.7 47 8.2 90 90 SE 8 13 30.21 1023 7 11.26538 0.07 1.778
12:15 pm 12:15 Cloudy with Light Rain 49 9.6 47 8.4 92 92 SSE 14 22 30.21 1023 4 6.43736 0.02 0.508
12:35 pm 12:35 Cloudy with Rain 48 8.8 46 7.5 92 92 SE 12 19 30.21 1023 3 4.82802 0.03 0.762
12:55 pm 12:55 Cloudy with Light Rain 47 8.5 45 7.2 92 92 SE 14 22 30.21 1023 2 3.21868 0.05 1.27
1:15 pm 13:15 Cloudy with Rain 48 8.7 46 7.6 93 93 ESE 15 24 30.21 1023 2 3.21868 0.01 0.254
1:35 pm 13:35 Cloudy with Drizzle 48 9 46 8 94 94 E 14 22 30.21 1023 5 8.0467 0.01 0.254
1:55 pm 13:55 Cloudy with Light Rain 49 9.3 47 8.2 93 93 E 10 17 30.21 1023 7 11.26538 0.02 0.508
2:15 pm 14:15 Cloudy with Light Rain 50 9.8 47 8.1 89 89 E 17 28 30.18 1022 7 11.26538 N/A
2:35 pm 14:35 Cloudy with Light Rain 49 9.4 46 7.5 88 88 ESE 14 22 30.18 1022 7 11.26538 0.01 0.254
2:55 pm 14:55 Cloudy with Light Rain 50 10 46 8 88 88 E 12 19 30.18 1022 10 16.0934 0.01 0.254
3:15 pm 15:15 Cloudy with Light Rain 50 10 46 8 88 88 E 12 19 30.18 1022 10 16.0934 0.01 0.254
3:35 pm 15:35 Cloudy with Light Rain 50 9.9 46 8 88 88 E 10 17 30.15 1021 10 16.0934 0.01 0.254
3:55 pm 15:55 Cloudy with Light Rain 50 10 46 8 88 88 ESE 13 20 30.15 1021 7 11.26538 0.02 0.508
4:15 pm 16:15 Cloudy with Light Rain 50 10 47 8.3 89 89 E 15 24 30.15 1021 10 16.0934 0.01 0.254
4:35 pm 16:35 Cloudy with Light Rain 50 10 47 8.5 91 91 E 13 20 30.15 1021 10 16.0934 0.01 0.254
4:55 pm 16:55 Cloudy 50 10 48 8.7 92 92 E 15 24 30.12 1020 7 11.26538 0.01 0.254
5:15 pm 17:15 Cloudy 51 10.4 48 9 91 91 E 13 20 30.12 1020 10 16.0934 N/A
5:35 pm 17:35 Cloudy 51 10.5 48 9.1 91 91 ESE 13 20 30.09 1019 7 11.26538 N/A
5:55 pm 17:55 Cloudy with Light Rain 51 10.3 48 9.1 92 92 ESE 14 22 30.12 1020 2 3.21868 0.01 0.254
6:15 pm 18:15 Cloudy with Light Rain 51 10.5 49 9.5 94 94 ESE 13 20 30.09 1019 1.5 2.41401 N/A
6:35 pm 18:35 Cloudy with Light Rain 51 10.5 49 9.5 94 94 ESE 14 22 30.09 1019 1.5 2.41401 0.01 0.254
6:55 pm 18:55 Cloudy with Light Rain 51 10.5 49 9.7 95 95 ESE 13 20 30.09 1019 1.75 2.816345 0.01 0.254
7:15 pm 19:15 Cloudy with Light Rain 51 10.5 50 9.8 95 95 ESE 12 19 30.09 1019 2 3.21868 0.01 0.254
7:35 pm 19:35 Cloudy with Mist and Fog 51 10.5 50 10 97 97 ESE 13 20 30.09 1019 2.5 4.02335 0.01 0.254
7:55 pm 19:55 Cloudy with Drizzle 51 10.6 50 10 96 96 ESE 10 17 30.09 1019 1.75 2.816345 0.01 0.254
8:15 pm 20:15 Cloudy with Drizzle 51 10.6 50 10 96 96 ESE 10 17 30.09 1019 1.5 2.41401 N/A
8:35 pm 20:35 Cloudy with Light Rain 51 10.6 50 10 96 96 ESE 10 17 30.09 1019 1.75 2.816345 N/A
8:55 pm 20:55 Cloudy with Rain 51 10.6 50 10 96 96 ESE 12 19 30.09 1019 2.5 4.02335 N/A
9:15 pm 21:15 Cloudy with Light Rain 51 10.8 50 10.2 96 96 ESE 10 17 30.09 1019 2.5 4.02335 0.01 0.254
9:35 pm 21:35 Cloudy with Light Rain 52 11.1 51 10.5 96 96 ESE 10 17 30.09 1019 2.5 4.02335 0.01 0.254
9:55 pm 21:55 Cloudy with Mist and Fog 52 11 51 10.5 97 97 ESE 12 19 30.09 1019 3 4.82802 0.01 0.254
10:15 pm 22:15 Cloudy with Mist and Fog 52 11.2 51 10.6 96 96 ESE 9 15 30.09 1019 4 6.43736 N/A
10:35 pm 22:35 Cloudy with Mist and Fog 52 11.2 51 10.7 97 97 SE 13 20 30.09 1019 4 6.43736 N/A
10:55 pm 22:55 Cloudy with Mist and Fog 53 11.5 52 11 97 97 SE 12 19 30.09 1019 1.75 2.816345 N/A
11:15 pm 23:15 Cloudy with Mist and Fog 53 11.5 52 11 97 97 SE 9 15 30.09 1019 2 3.21868 N/A
11:35 pm 23:35 Cloudy with Mist and Fog 53 11.6 52 11.1 97 97 SE 10 17 30.09 1019 1.75 2.816345 N/A
11:55 pm 23:55 Cloudy with Mist and Fog 53 11.8 52 11.3 97 97 SE 10 17 30.09 1019 1.5 2.41401 N/A

Powered by AerisWeather